Regional Weather Roundup
Issued by NWS

Home | Current Version | Previous Version | Graphics & Text | Print | Product List | Glossary Off
Versions: 1 2 3 4 5 6 7 8 9 10 11 12 13 14 15 16 17 18 19 20 21 22 23 24 25 26 27 28 29 30 31 32 33 34 35 36 37 38 39 40 41 42 43 44 45 46 47 48 49 50

000
ASUS43 KDMX 051507
RWRIA

WEATHER ROUNDUP FOR IOWA
NATIONAL WEATHER SERVICE DES MOINES IA
900 AM CST THU MAR 05 2015

NOTE: "FAIR" INDICATES FEW OR NO CLOUDS BELOW 12,000 FEET WITH NO
SIGNIFICANT WEATHER AND/OR OBSTRUCTIONS TO VISIBILITY.

* - THESE STATIONS ARE NOT NWS STATIONS...THUS NOT UNDER NWS
QUALITY CONTROL.  THEY ALSO DO NOT REPORT WEATHER SUCH
AS PRECIPITATION OR FOG.

IAZ001>003-012>014-020>022-031>034-043>046-051600-
   NORTHWEST IOWA

CITY           SKY/WX    TMP DP  RH WIND       PRES   REMARKS
CARROLL *      SUNNY      3  -9  55 W5        30.56R WCI  -6
CHEROKEE *     SUNNY      0  -6  78 CALM      30.53S
DENISON *      SUNNY      3  -6  66 CALM      30.53R
LE MARS *      SUNNY      5  -2  72 S6        30.53S WCI  -6
ORANGE CITY *  SUNNY      3  -6  66 S5        30.49R WCI  -6
SHELDON *      SUNNY      1  -9  60 S6        30.48S WCI -10
SIOUX CITY     SUNNY      6  -1  73 SE6       30.54R WCI  -4
SPENCER        SUNNY      0  -7  72 CALM      30.50R
STORM LAKE *   SUNNY      1  -9  60 SW5       30.51R WCI  -8
$$

IAZ055>058-069>071-079>083-090>094-051600-
   SOUTHWEST IOWA

CITY           SKY/WX    TMP DP  RH WIND       PRES   REMARKS
ATLANTIC *     SUNNY      7  -6  56 CALM      30.57R
AUDUBON *      SUNNY      3  -6  66 CALM      30.55R
CLARINDA *     SUNNY      9  -2  61 N3        30.61R
COUNCIL BLFS * SUNNY      9  -2  61 CALM      30.55R
CRESTON *      SUNNY      5  -8  56 NW6       30.55R WCI  -6
HARLAN  *      SUNNY      5  -4  66 CALM      30.59R
LAMONI         SUNNY      8  -3  61 N10       30.55R WCI  -6
RED OAK *      SUNNY      9  -2  61 CALM      30.59R
SHENANDOAH *   SUNNY     10  -2  56 CALM      30.61R
$$

IAZ047>049-059>061-072>074-084-051600-
   CENTRAL IOWA

CITY           SKY/WX    TMP DP  RH WIND       PRES   REMARKS
AMES           SUNNY      3  -7  63 NW5       30.58R WCI  -6
ANKENY *       SUNNY      5  -8  56 NW8       30.59R WCI  -8
CHARITON *     SUNNY      7  -6  56 VRB6      30.56R WCI  -3
DES MOINES     MOSUNNY    7  -7  52 VRB3      30.58R
GRINNELL*      SUNNY      1  -6  71 NW9       30.56R WCI -14
KNOXVILLE *    SUNNY      5  -8  56 N9        30.56R WCI  -9
MARSHALLTOWN   SUNNY     -4  -9  79 NW8       30.56R WCI -19
PELLA *        SUNNY      7   0  72 NW8       30.59R WCI  -6
PERRY *          N/A      5  -4  66 N3        30.57R
$$

IAZ004>006-015-016-023>025-035-036-051600-
   NORTH CENTRAL IOWA

CITY           SKY/WX    TMP DP  RH WIND       PRES   REMARKS
ALGONA *       SUNNY      1   1 100 NW6       30.53R WCI -10
CLARION *      SUNNY      1  -8  66 NW5       30.54R WCI  -8
ESTHERVILLE    SUNNY      0  -7  72 W5        30.50R WCI -10
FORT DODGE *   SUNNY      1  -6  71 NW3       30.55R
MASON CITY     SUNNY     -3 -10  72 W6        30.53R WCI -15
FOREST CITY *  SUNNY      0  -9  65 W5        30.52R WCI -10
IOWA FALLS *     N/A      0  -6  78 W6        30.55R WCI -12
$$

IAZ007>011-017>019-026>030-037>042-050>054-066-051600-
   NORTHEAST IOWA

CITY           SKY/WX    TMP DP  RH WIND       PRES   REMARKS
CEDAR RAPIDS   SUNNY     -2  -8  76 NW10      30.54R WCI -19
CHARLES CITY * SUNNY     -6 -11  77 W6        30.54R WCI -18
CLINTON *      SUNNY     -2  -8  78 W3        30.55R
DECORAH *      SUNNY     -4 -13  65 VRB3      30.50R
DUBUQUE        SUNNY      1  -8  66 N9        30.49R WCI -14
MONTICELLO *   SUNNY     -2 -11  65 NW7       30.54R WCI -16
OELWEIN *      SUNNY     -6 -11  77 NW9       30.53S WCI -22
WATERLOO       SUNNY     -2  -9  72 NW7       30.56R WCI -15
$$

IAZ064-065-067-068-078-051600-
   EAST CENTRAL IOWA

CITY           SKY/WX    TMP DP  RH WIND       PRES   REMARKS
DAVENPORT      SUNNY     -1  -9  68 NW9       30.54R WCI -16
IOWA CITY      SUNNY      2  -7  66 NW10      30.59R WCI -14
MT. PLEASANT * SUNNY      5  -6  61 NW8       30.57R WCI  -8
MUSCATINE *    SUNNY      5  -6  61 NW10      30.59R WCI -10
QUAD CITIES    SUNNY      4  -7  60 NW9       30.55R WCI -10
$$

IAZ062-063-075>077-085>089-095>099-051600-
   SOUTHEAST IOWA

CITY           SKY/WX    TMP DP  RH WIND       PRES   REMARKS
BURLINGTON     SUNNY      5  -4  66 NW9       30.55R WCI  -9
FAIRFIELD *    SUNNY      5  -8  56 NW10      30.57R WCI -10
FORT MADISON * SUNNY      7  -2  66 NW9       30.57R WCI  -7
KEOKUK *       SUNNY      9  -4  56 NW9       30.57R WCI  -5
OSKALOOSA *      N/A      5  -4  66 NW10      30.58R WCI -10
CENTERVILLE *  SUNNY      7  -2  66 NW8       30.57R WCI  -6
OTTUMWA        SUNNY      7  -5  57 NW13      30.57R WCI  -9
WASHINGTON *   SUNNY      5  -2  72 NW12      30.57R WCI -11
$$

ABBREVIATIONS USED IN REMARKS
   TC - TEMPERATURES IN CELSIUS
  WCI - WIND CHILL INDEX
   HX - HEAT INDEX
  VSB - VISIBILITY
$$




USA.gov is the U.S. government's official web portal to all federal, state and local government web resources and services.